Tracking 21612 objects as of 19-Oct-2020
HD Live streaming from Space Station
objects crossing your sky now

ARIANE 5 R/B

Track ARIANE 5 R/B now!


NORAD ID: 42742
Int'l Code: 2017-029C
Perigee: 301.8 km
Apogee: 35,558.3 km
Inclination: 6.0 °
Period: 628.3 minutes
Semi major axis: 24301 km
RCS: Unknown
Launch date: June 1, 2017
Source: France (FR)
Launch site: FRENCH GUIANA (FRGUI)

Note: This is a ROCKET BODY
aabbcc
Your satellite tracking list
Your tracking list is empty




NASA's NSSDC Master Catalog

Two Line Element Set (TLE):
1 42742U 17029C   20292.60118201  .00000674  00000-0  54494-3 0  9998
2 42742   5.9659 287.7177 7254103 101.7268 340.5344  2.29173600 28251
Source of the keplerian elements: AFSPC